FW8879 Weather Reports


time (UTC)temp
F
wind
direction
speed
knots
gust
knots
rain 1hr
in
rain 24hr
in
rain mn
in
humidity
%
barometer
mb
20260509211259 87 279 2.6 2.6 0.00 0.00 0.00 64 1004.3
20260509210756 88 264 3.5 3.5 0.00 0.00 0.00 63 1004.7
20260509210254 88 342 7.0 7.0 0.00 0.00 0.00 62 1004.7
20260509205753 89 319 5.2 6.1 0.00 0.00 0.00 63 1005.0
20260509205248 89 332 4.3 5.2 0.00 0.00 0.00 63 1004.7
20260509204744 88 23 3.5 3.5 0.00 0.00 0.00 62 1004.7
20260509204241 87 342 6.1 6.1 0.00 0.00 0.00 63 1004.7
20260509203737 87 313 5.2 5.2 0.00 0.00 0.00 63 1005.0
20260509203235 87 318 2.6 2.6 0.00 0.00 0.00 64 1004.7
20260509202730 87 282 2.6 2.6 0.00 0.00 0.00 64 1005.0
20260509202226 87 307 3.5 3.5 0.00 0.00 0.00 65 1005.0
20260509201721 89 264 3.5 3.5 0.00 0.00 0.00 63 1005.3
20260509201218 89 312 2.6 2.6 0.00 0.00 0.00 61 1005.3
20260509200715 88 312 2.6 2.6 0.00 0.00 0.00 62 1005.3
20260509200209 88 6 4.3 4.3 0.00 0.00 0.00 65 1005.3
20260509195705 88 78 3.5 3.5 0.00 0.00 0.00 64 1005.0
20260509195201 91 335 4.3 5.2 0.00 0.00 0.00 61 1005.3
20260509194655 90 312 5.2 6.1 0.00 0.00 0.00 60 1005.3
20260509194152 90 308 3.5 3.5 0.00 0.00 0.00 57 1005.3
20260509193648 89 202 1.7 1.7 0.00 0.00 0.00 61 1005.3
20260509193144 87 309 3.5 3.5 0.00 0.00 0.00 60 1005.3
20260509192640 86 220 2.6 2.6 0.00 0.00 0.00 67 1005.7
20260509192135 86 138 5.2 6.1 0.00 0.00 0.00 69 1005.7
20260509191629 86 138 7.0 7.8 0.00 0.00 0.00 70 1006.0
20260509191127 87 174 2.6 2.6 0.00 0.00 0.00 67 1005.7
20260509190623 86 156 2.6 2.6 0.00 0.00 0.00 67 1005.7
20260509190120 86 144 2.6 2.6 0.00 0.00 0.00 67 1005.7
20260509185618 85 114 0.0 0.0 0.00 0.00 0.00 72 1006.0
20260509185114 85 138 3.5 3.5 0.00 0.00 0.00 75 1006.0
20260509184612 85 66 2.6 2.6 0.00 0.00 0.00 72 1006.0
20260509184109 87 309 7.0 7.8 0.00 0.00 0.00 70 1006.3
20260509183604 86 72 3.5 3.5 0.00 0.00 0.00 68 1006.3
20260509183100 86 293 2.6 2.6 0.00 0.00 0.00 68 1006.3
20260509182556 87 230 1.7 1.7 0.00 0.00 0.00 65 1006.3
20260509182053 86 314 1.7 1.7 0.00 0.00 0.00 69 1006.3
20260509181552 85 126 5.2 6.1 0.00 0.00 0.00 70 1006.7
20260509181048 85 172 1.7 1.7 0.00 0.00 0.00 69 1006.3
20260509180544 85 279 1.7 1.7 0.00 0.00 0.00 71 1006.7
20260509180042 84 96 2.6 2.6 0.00 0.00 0.00 75 1006.7
20260509175537 83 128 2.6 2.6 0.00 0.00 0.00 78 1006.7
20260509175035 83 133 0.0 0.0 0.00 0.00 0.00 77 1007.0
20260509174531 83 93 2.6 2.6 0.00 0.00 0.00 76 1007.0
20260509174026 84 132 6.1 7.0 0.00 0.00 0.00 75 1007.0
20260509173520 84 132 2.6 2.6 0.00 0.00 0.00 77 1007.0
20260509173017 84 102 2.6 2.6 0.00 0.00 0.00 76 1007.0
20260509172515 84 150 1.7 1.7 0.00 0.00 0.00 75 1007.4
20260509172010 84 273 0.0 0.0 0.00 0.00 0.00 76 1007.4
20260509171506 83 276 1.7 1.7 0.00 0.00 0.00 77 1007.4
20260509171003 85 60 2.6 2.6 0.00 0.00 0.00 73 1007.0
20260509170458 83 282 0.0 0.0 0.00 0.00 0.00 76 1007.4
20260509165954 83 282 0.0 0.0 0.00 0.00 0.00 79 1007.4
20260509165453 82 281 2.6 2.6 0.00 0.00 0.00 79 1007.4
20260509164949 81 305 2.6 2.6 0.00 0.00 0.00 81 1007.4
20260509164445 81 220 0.0 0.0 0.00 0.00 0.00 82 1007.4
20260509163941 81 258 2.6 2.6 0.00 0.00 0.00 82 1007.4
20260509163439 81 174 0.0 0.0 0.00 0.00 0.00 83 1007.4
20260509162938 80 174 3.5 3.5 0.00 0.00 0.00 83 1007.0
20260509162437 80 174 3.5 3.5 0.00 0.00 0.00 85 1007.0
20260509161932 79 264 0.0 0.0 0.00 0.00 0.00 86 1007.4
20260509161429 79 254 3.5 3.5 0.00 0.00 0.00 86 1007.0
20260509160924 79 276 2.6 2.6 0.00 0.00 0.00 87 1006.7
20260509160420 78 258 1.7 1.7 0.00 0.00 0.00 88 1007.0
20260509155916 78 240 0.0 0.0 0.00 0.00 0.00 88 1007.4
20260509155412 78 173 0.0 0.0 0.00 0.00 0.00 88 1007.0
20260509154909 78 173 0.0 0.0 0.00 0.00 0.00 89 1007.0
20260509154405 78 276 2.6 2.6 0.00 0.00 0.00 89 1007.0
20260509153902 78 187 3.5 3.5 0.00 0.00 0.00 89 1007.0
20260509153359 78 208 1.7 1.7 0.00 0.00 0.00 91 1007.0
20260509152856 78 190 2.6 2.6 0.00 0.00 0.00 92 1006.7
20260509152352 77 204 6.1 7.0 0.00 0.00 0.00 91 1006.7
20260509151850 77 208 7.0 7.0 0.00 0.00 0.00 92 1006.3
20260509151345 76 162 8.7 8.7 0.00 0.00 0.00 92 1006.0
20260509150844 76 161 8.7 9.6 0.00 0.00 0.00 93 1006.3
20260509150341 76 204 5.2 5.2 0.00 0.00 0.00 93 1006.7
20260509145838 76 237 4.3 4.3 0.00 0.00 0.00 93 1006.3
20260509145333 76 189 5.2 5.2 0.00 0.00 0.00 94 1006.3
20260509144830 75 186 5.2 6.1 0.00 0.00 0.00 94 1006.7
20260509144327 75 173 5.2 6.1 0.00 0.00 0.00 95 1006.7
20260509143824 75 175 4.3 4.3 0.00 0.00 0.00 95 1006.3
20260509143321 75 134 7.8 8.7 0.00 0.00 0.00 95 1006.7
20260509142817 75 166 7.0 7.8 0.00 0.00 0.00 95 1006.3
20260509142314 75 184 4.3 4.3 0.00 0.00 0.00 95 1006.7
20260509141809 75 180 5.2 5.2 0.00 0.00 0.00 96 1006.3
20260509141307 75 174 3.5 3.5 0.00 0.00 0.00 96 1007.0
20260509140803 75 186 3.5 3.5 0.00 0.00 0.00 97 1006.7
20260509140300 74 184 2.6 2.6 0.00 0.00 0.00 97 1007.0
20260509135758 74 186 2.6 2.6 0.00 0.00 0.00 97 1006.7
20260509135255 74 186 1.7 1.7 0.00 0.00 0.00 97 1006.7
20260509134752 74 193 2.6 2.6 0.00 0.00 0.00 97 1006.7
20260509134250 74 199 4.3 4.3 0.00 0.00 0.00 97 1006.7
20260509133747 74 174 4.3 5.2 0.00 0.00 0.00 97 1006.7
20260509133243 74 167 6.1 6.1 0.00 0.00 0.00 97 1006.7
20260509132742 74 166 4.3 4.3 0.00 0.00 0.00 97 1006.7
20260509132240 74 151 5.2 6.1 0.00 0.00 0.00 97 1007.0
20260509131736 74 149 2.6 2.6 0.00 0.00 0.00 97 1006.7
20260509131233 73 170 5.2 6.1 0.00 0.00 0.00 97 1006.7
20260509130729 73 130 3.5 3.5 0.00 0.00 0.00 97 1006.7
20260509130225 73 133 3.5 3.5 0.00 0.00 0.00 97 1006.7
20260509125722 73 131 4.3 4.3 0.00 0.00 0.00 97 1006.7
20260509125219 73 168 5.2 5.2 0.00 0.00 0.00 97 1006.7
20260509124715 73 168 4.3 4.3 0.00 0.00 0.00 97 1006.3
20260509124212 73 174 3.5 3.5 0.00 0.00 0.00 97 1006.7
20260509123710 73 300 0.0 0.0 0.00 0.00 0.00 97 1006.3
20260509123207 73 300 0.0 0.0 0.00 0.00 0.00 97 1006.3
20260509122702 73 300 1.7 1.7 0.00 0.00 0.00 97 1006.7
20260509122200 73 300 2.6 2.6 0.00 0.00 0.00 97 1006.7
20260509121656 73 297 1.7 1.7 0.00 0.00 0.00 97 1006.7
20260509121154 73 228 2.6 2.6 0.00 0.00 0.00 97 1006.7
20260509120652 73 192 0.0 0.0 0.00 0.00 0.00 97 1006.3
20260509120149 73 192 0.0 0.0 0.00 0.00 0.00 97 1006.7
20260509115647 73 192 0.0 0.0 0.00 0.00 0.00 97 1006.3
20260509115144 73 192 0.0 0.0 0.00 0.00 0.00 97 1006.7
20260509114642 73 192 0.0 0.0 0.00 0.00 0.00 97 1006.7
20260509114141 73 192 0.0 0.0 0.00 0.00 0.00 97 1006.3
20260509113639 73 305 0.0 0.0 0.00 0.00 0.00 97 1006.7
20260509113136 73 305 0.0 0.0 0.00 0.00 0.00 97 1007.0
20260509112632 73 307 2.6 2.6 0.00 0.00 0.00 97 1007.0
20260509112130 73 307 2.6 2.6 0.00 0.00 0.00 97 1007.0
20260509111627 73 301 1.7 1.7 0.00 0.00 0.00 97 1007.4
20260509111123 73 298 3.5 3.5 0.00 0.00 0.00 97 1007.4
20260509110621 73 297 0.0 0.0 0.00 0.00 0.00 97 1007.0
20260509110118 73 296 0.0 0.0 0.00 0.00 0.00 97 1007.0
20260509105616 73 297 1.7 1.7 0.00 0.00 0.00 97 1007.0
20260509105113 73 120 2.6 2.6 0.00 0.00 0.00 97 1007.4
20260509104610 73 120 2.6 2.6 0.00 0.00 0.00 97 1007.0
20260509104108 73 120 0.0 0.0 0.00 0.00 0.00 97 1007.0
20260509103605 73 120 0.0 0.0 0.00 0.00 0.00 97 1006.7
20260509103102 73 120 0.0 0.0 0.00 0.00 0.00 97 1006.7
20260509102559 73 120 0.0 0.0 0.00 0.00 0.00 97 1006.7
20260509102056 73 120 0.0 0.0 0.00 0.00 0.00 97 1006.3
20260509101552 73 120 0.0 0.0 0.00 0.00 0.00 97 1006.3
20260509101049 73 120 0.0 0.0 0.00 0.00 0.00 96 1006.3
20260509100547 73 120 0.0 0.0 0.00 0.00 0.00 96 1006.7
20260509100044 73 120 0.0 0.0 0.00 0.00 0.00 96 1007.0
20260509095540 73 120 0.0 0.0 0.00 0.00 0.00 96 1007.0
20260509095038 73 120 2.6 2.6 0.00 0.00 0.00 96 1007.0
20260509094534 73 120 3.5 3.5 0.00 0.00 0.00 96 1006.7
20260509094032 73 120 2.6 2.6 0.00 0.00 0.00 96 1006.3
20260509093530 73 120 0.0 0.0 0.00 0.00 0.00 96 1006.0
20260509093027 73 120 0.0 0.0 0.00 0.00 0.00 96 1006.3
20260509092525 73 120 0.0 0.0 0.00 0.00 0.00 96 1006.0
20260509092023 73 120 0.0 0.0 0.00 0.00 0.00 96 1006.0
20260509091520 73 120 0.0 0.0 0.00 0.00 0.00 96 1006.0
20260509091017 73 120 0.0 0.0 0.00 0.00 0.00 96 1006.3
20260509090514 73 120 1.7 1.7 0.00 0.00 0.00 96 1006.0
20260509090012 73 120 0.0 0.0 0.00 0.00 0.00 96 1006.3
20260509085508 73 120 1.7 1.7 0.00 0.00 0.00 96 1006.0
20260509085004 73 120 1.7 1.7 0.00 0.00 0.00 96 1006.3
20260509084502 73 120 0.0 0.0 0.00 0.00 0.00 96 1006.3
20260509083959 73 120 0.0 0.0 0.00 0.00 0.00 96 1006.3
20260509083456 73 120 0.0 0.0 0.00 0.00 0.00 96 1006.7
20260509082952 73 120 0.0 0.0 0.00 0.00 0.00 96 1006.3
20260509082450 73 120 3.5 3.5 0.00 0.00 0.00 96 1006.3
20260509081947 73 132 5.2 6.1 0.00 0.00 0.00 96 1006.3
20260509081444 73 174 2.6 2.6 0.00 0.00 0.00 96 1006.3
20260509080941 73 160 4.3 5.2 0.00 0.00 0.00 96 1006.7
20260509080439 73 149 2.6 2.6 0.00 0.00 0.00 96 1006.7
20260509075937 73 149 2.6 2.6 0.00 0.00 0.00 95 1006.7
20260509075434 73 149 2.6 2.6 0.00 0.00 0.00 95 1006.7
20260509074932 73 149 2.6 2.6 0.00 0.00 0.00 95 1007.0
20260509074429 73 149 0.0 0.0 0.00 0.00 0.00 95 1007.0
20260509073925 73 149 2.6 2.6 0.00 0.00 0.00 95 1006.7
20260509073422 73 149 2.6 2.6 0.00 0.00 0.00 95 1007.0
20260509072918 73 149 0.0 0.0 0.00 0.00 0.00 95 1006.7
20260509072415 73 149 0.0 0.0 0.00 0.00 0.00 95 1007.0
20260509071911 73 149 0.0 0.0 0.00 0.00 0.00 95 1006.7
20260509071409 73 149 0.0 0.0 0.00 0.00 0.00 95 1006.7
20260509070906 73 149 0.0 0.0 0.00 0.00 0.00 95 1006.7
20260509070403 73 149 0.0 0.0 0.00 0.00 0.00 95 1006.7
20260509065858 73 149 3.5 3.5 0.00 0.00 0.00 95 1006.7
20260509065355 73 171 3.5 3.5 0.00 0.00 0.00 95 1006.7
20260509064851 73 136 3.5 3.5 0.00 0.00 0.00 95 1006.7
20260509064349 73 130 3.5 3.5 0.00 0.00 0.00 95 1006.3
20260509063846 73 131 5.2 6.1 0.00 0.00 0.00 95 1006.3
20260509063342 73 124 4.3 4.3 0.00 0.00 0.00 95 1006.7
20260509062839 73 145 2.6 2.6 0.00 0.00 0.00 95 1006.7
20260509062336 73 145 2.6 2.6 0.00 0.00 0.00 95 1006.7
20260509061833 73 136 5.2 6.1 0.00 0.00 0.00 95 1006.3
20260509061332 73 115 4.3 4.3 0.00 0.00 0.00 95 1006.3
20260509060828 73 132 3.5 3.5 0.00 0.00 0.00 95 1006.3
20260509060325 73 132 5.2 5.2 0.00 0.00 0.00 95 1006.3
20260509055820 73 126 5.2 6.1 0.00 0.00 0.00 95 1006.7
20260509055316 73 156 2.6 2.6 0.00 0.00 0.00 95 1006.7
20260509054814 73 158 7.0 7.8 0.00 0.00 0.00 95 1006.7
20260509054310 73 135 4.3 4.3 0.00 0.00 0.00 95 1006.7
20260509053809 73 126 4.3 4.3 0.00 0.00 0.00 95 1006.7
20260509053305 73 138 3.5 3.5 0.00 0.00 0.00 95 1006.3
20260509052803 73 174 3.5 3.5 0.00 0.00 0.00 95 1006.3
20260509052301 73 133 4.3 5.2 0.00 0.00 0.00 95 1006.3
20260509051758 73 164 4.3 4.3 0.00 0.00 0.00 95 1006.3
20260509051256 73 146 3.5 3.5 0.00 0.00 0.00 95 1006.3
20260509050752 73 146 3.5 3.5 0.00 0.00 0.00 95 1006.3
20260509050249 73 134 5.2 5.2 0.00 0.00 0.00 95 1006.0
20260509045746 74 138 7.0 7.0 0.00 0.00 0.00 95 1006.3
20260509045243 74 136 4.3 4.3 0.00 0.00 0.00 95 1006.0
20260509044740 74 133 6.1 6.1 0.00 0.00 0.00 95 1006.3
20260509044238 74 139 3.5 3.5 0.00 0.00 0.00 95 1006.3
20260509043734 74 150 7.0 7.8 0.00 0.00 0.00 95 1006.3
20260509043230 74 144 6.1 6.1 0.00 0.00 0.00 94 1006.3
20260509042726 74 144 7.8 7.8 0.00 0.00 0.00 94 1006.3
20260509042223 74 138 7.8 7.8 0.00 0.00 0.00 94 1006.7
20260509041720 74 148 6.1 7.0 0.00 0.00 0.00 94 1006.3
20260509041217 74 144 7.8 7.8 0.00 0.00 0.00 94 1006.3
20260509040715 74 140 8.7 9.6 0.00 0.00 0.00 94 1005.7
20260509040212 74 149 9.6 10.4 0.00 0.00 0.00 93 1005.7
20260509035708 74 138 6.1 7.0 0.00 0.00 0.00 93 1005.7
20260509035205 74 134 5.2 5.2 0.00 0.00 0.00 93 1005.7
20260509034703 74 125 7.0 7.8 0.00 0.00 0.00 93 1006.3
20260509034200 74 131 6.1 6.1 0.00 0.00 0.00 93 1006.3
20260509033657 74 132 3.5 3.5 0.00 0.00 0.00 93 1006.3
20260509033154 74 132 2.6 2.6 0.00 0.00 0.00 92 1006.7
20260509032651 74 134 7.0 7.0 0.00 0.00 0.00 92 1006.3
20260509032148 74 136 4.3 5.2 0.00 0.00 0.00 92 1006.0
20260509031646 75 136 5.2 5.2 0.00 0.00 0.00 92 1006.0
20260509031143 75 114 4.3 4.3 0.00 0.00 0.00 92 1006.0
20260509030641 75 102 5.2 6.1 0.00 0.00 0.00 92 1006.0
20260509030138 75 133 6.1 6.1 0.00 0.00 0.00 92 1006.3
20260509025634 75 126 5.2 6.1 0.00 0.00 0.00 92 1005.7
20260509025130 75 138 4.3 4.3 0.00 0.00 0.00 92 1005.7
20260509024625 75 132 5.2 5.2 0.00 0.00 0.00 92 1005.7
20260509024121 75 131 2.6 2.6 0.00 0.00 0.00 91 1005.7
20260509023620 75 134 4.3 4.3 0.00 0.00 0.00 91 1005.7
20260509023116 75 130 3.5 3.5 0.00 0.00 0.00 91 1005.7
20260509022612 75 130 3.5 3.5 0.00 0.00 0.00 91 1005.7
20260509022111 75 128 2.6 2.6 0.00 0.00 0.00 91 1005.7
20260509021607 75 128 4.3 4.3 0.00 0.00 0.00 91 1005.7
20260509021104 75 133 2.6 2.6 0.00 0.00 0.00 91 1005.3
20260509020603 75 133 2.6 2.6 0.00 0.00 0.00 91 1005.3
20260509020059 75 133 2.6 2.6 0.00 0.00 0.00 91 1005.3
20260509015558 75 133 2.6 2.6 0.00 0.00 0.00 90 1005.3
20260509015055 75 133 0.0 0.0 0.00 0.00 0.00 90 1005.3
20260509014551 75 133 0.0 0.0 0.00 0.00 0.00 90 1005.3
20260509014048 76 133 0.0 0.0 0.00 0.00 0.00 89 1005.3
20260509013545 76 133 0.0 0.0 0.00 0.00 0.00 89 1005.3
20260509013040 76 133 0.0 0.0 0.00 0.00 0.00 89 1005.3
20260509012537 76 133 0.0 0.0 0.00 0.00 0.00 89 1005.3
20260509012034 76 133 0.0 0.0 0.00 0.00 0.00 89 1005.3
20260509011532 76 133 0.0 0.0 0.00 0.00 0.00 88 1005.0
20260509011029 76 133 0.0 0.0 0.00 0.00 0.00 88 1005.3
20260509010527 76 133 0.0 0.0 0.00 0.00 0.00 88 1005.0
20260509010023 76 133 2.6 2.6 0.00 0.00 0.00 88 1005.3
20260509005521 77 133 0.0 0.0 0.00 0.00 0.00 88 1005.0
20260509005021 77 133 0.0 0.0 0.00 0.00 0.00 87 1005.0
20260509004518 77 133 2.6 2.6 0.00 0.00 0.00 87 1005.3
20260509004015 77 133 2.6 2.6 0.00 0.00 0.00 87 1005.3
20260509003514 77 133 2.6 2.6 0.00 0.00 0.00 87 1005.3
20260509003010 77 133 1.7 1.7 0.00 0.00 0.00 87 1005.3
20260509002508 77 133 3.5 3.5 0.00 0.00 0.00 87 1005.0
20260509002005 77 133 3.5 3.5 0.00 0.00 0.00 87 1005.3
20260509001502 77 128 4.3 4.3 0.00 0.00 0.00 86 1005.3
20260509000958 77 114 3.5 3.5 0.00 0.00 0.00 86 1005.3
20260509000457 77 133 2.6 2.6 0.00 0.00 0.00 86 1005.0
20260508235952 77 114 2.6 2.6 0.00 0.00 0.00 86 1005.3
20260508235450 77 133 3.5 3.5 0.00 0.00 0.00 86 1005.3
20260508234946 77 133 2.6 2.6 0.00 0.00 0.00 86 1005.0
20260508234443 78 126 4.3 4.3 0.00 0.00 0.00 85 1005.3
20260508233941 78 127 4.3 4.3 0.00 0.00 0.00 85 1005.0
20260508233440 78 127 2.6 2.6 0.00 0.00 0.00 85 1005.0
20260508232936 78 134 4.3 4.3 0.00 0.00 0.00 85 1005.0
20260508232433 78 138 5.2 5.2 0.00 0.00 0.00 85 1005.0
20260508231930 77 132 5.2 6.1 0.00 0.00 0.00 85 1005.0
20260508231428 78 132 7.0 7.8 0.00 0.00 0.00 85 1005.3
20260508230924 78 72 2.6 2.6 0.00 0.00 0.00 84 1005.3
20260508230421 78 146 5.2 5.2 0.00 0.00 0.00 84 1005.0
20260508225918 78 144 3.5 3.5 0.00 0.00 0.00 84 1005.0
20260508225415 78 138 6.1 7.0 0.00 0.00 0.00 83 1005.0
20260508224913 78 54 4.3 4.3 0.00 0.00 0.00 84 1005.0
20260508224410 78 107 2.6 2.6 0.00 0.00 0.00 85 1005.3
20260508223907 77 81 2.6 2.6 0.00 0.00 0.00 85 1005.3
20260508223405 77 85 5.2 5.2 0.00 0.00 0.00 85 1005.3
20260508222902 78 138 3.5 3.5 0.00 0.00 0.00 84 1005.3
20260508222359 78 118 5.2 5.2 0.00 0.00 0.00 83 1005.3
20260508221856 77 144 7.8 7.8 0.00 0.00 0.00 84 1005.0
20260508221351 77 126 4.3 4.3 0.00 0.00 0.00 85 1005.7
20260508220848 77 111 3.5 3.5 0.00 0.00 0.00 84 1005.7
20260508220344 77 127 4.3 4.3 0.00 0.00 0.00 84 1005.7
20260508215841 77 145 2.6 2.6 0.00 0.00 0.00 84 1005.7
20260508215338 77 145 2.6 2.6 0.00 0.00 0.00 83 1005.3
20260508214835 78 145 3.5 3.5 0.00 0.00 0.00 83 1005.7
20260508214332 78 150 3.5 3.5 0.00 0.00 0.00 83 1005.7
20260508213828 78 150 3.5 3.5 0.00 0.00 0.00 81 1005.7
20260508213325 78 150 6.1 6.1 0.00 0.00 0.00 79 1005.7
20260508212821 78 144 2.6 2.6 0.00 0.00 0.00 78 1005.7
20260508212318 79 121 3.5 3.5 0.00 0.00 0.00 78 1006.0
20260508211814 79 185 4.3 4.3 0.00 0.00 0.00 78 1005.7